Flag for Estonia Weather past 2 weeks in Tallinn, Estonia

Now
66 °F

Passing clouds.


Feels Like: 66 °F
Forecast: 50 / 64 °F
Wind: 9 mph from Southwest

Location: Tallinn

Current Time: Sep 20, 2014 at 3:30:25 PM

Latest Report: Sep 20, 2014 at 2:50 PM


Visibility: N/A

Pressure: 30.01 "Hg

Humidity: 52%

Dew point: 48 °F

Location of TallinnLocation

Historic Weather in Tallinn — Graph

°F

Tallinn temperature yesterday

Maximum temperature yesterday: 68 °F (at 2:20 PM)
Minimum temperature yesterday: 45 °F (at 4:50 AM)
Average temperature yesterday: 57 °F

Past Weeks' High & Low Weather Summary

 TemperatureHumidityPressure
High73 °F (Sep 8, 1:50 PM)100% (Sep 5, 10:20 PM)30.45 "Hg (Sep 5, 10:20 PM)
Low37 °F (Sep 16, 6:50 AM)46% (Sep 16, 2:50 PM)29.89 "Hg (Sep 9, 6:50 PM)
Average56 °F86%30.21 "Hg
* Reported Sep 5 2:20 PM — Sep 20 2:20 PM, Tallinn, Weather by CustomWeather, © 2014

Note: Actual official high and low records may vary slightly from our data, if they occured in-between our weather recording intervals... More about our weather records

Advertising

Tallinn weather history for previous 24 hours

 ConditionsComfort  
Time TempWeatherWind HumidityBarometerVisibility
2:20 PM
Sep 20
66 °FPassing clouds.12 mph52%30.01 "HgN/A
1:20 PM66 °FSunny.12 mph56%30.01 "Hg10 mi
12:50 PM64 °FSunny.9 mph60%30.04 "Hg10 mi
12:20 PM64 °FPassing clouds.12 mph64%30.04 "HgN/A
11:50 AM61 °FPassing clouds.9 mph72%30.04 "HgN/A
11:20 AM59 °FPassing clouds.8 mph82%30.04 "HgN/A
10:50 AM57 °FPassing clouds.8 mph82%30.04 "HgN/A
10:20 AM55 °FSunny.7 mph82%30.04 "Hg10 mi
9:50 AM52 °FSunny.7 mph88%30.07 "Hg10 mi
9:20 AM50 °FSunny.7 mph94%30.07 "Hg10 mi
8:50 AM48 °FSunny.7 mph94%30.07 "Hg10 mi
8:20 AM48 °FSunny.6 mph87%30.07 "Hg10 mi
7:50 AM46 °FClear.6 mph93%30.07 "Hg10 mi
7:20 AM46 °FPassing clouds.5 mph93%30.07 "HgN/A
6:50 AM46 °FClear.5 mph93%30.07 "Hg10 mi
6:20 AM46 °FClear.3 mph93%30.07 "Hg10 mi
5:50 AM45 °FClear.2 mph100%30.07 "Hg10 mi
5:20 AM46 °FClear.3 mph93%30.07 "Hg10 mi
4:50 AM46 °FPassing clouds.5 mph93%30.07 "HgN/A
4:20 AM46 °FClear.3 mph100%30.09 "Hg10 mi
3:50 AM48 °FClear.6 mph94%30.09 "Hg10 mi
3:20 AM48 °FClear.5 mph94%30.09 "Hg10 mi
2:50 AM50 °FClear.5 mph88%30.09 "Hg10 mi
2:20 AM52 °FClear.6 mph88%30.09 "Hg10 mi
1:50 AM52 °FClear.6 mph88%30.09 "Hg10 mi
1:20 AM52 °FClear.7 mph88%30.09 "Hg10 mi
12:50 AM50 °FClear.6 mph94%30.12 "Hg10 mi
12:20 AM50 °FPassing clouds.5 mph88%30.12 "HgN/A
11:50 PM
Sep 19
52 °FPassing clouds.6 mph88%30.12 "HgN/A
11:20 PM54 °FClear.5 mph82%30.12 "Hg10 mi
10:50 PM55 °FClear.7 mph77%30.12 "Hg10 mi
10:20 PM55 °FClear.5 mph77%30.12 "Hg10 mi
9:50 PM55 °FClear.5 mph77%30.12 "Hg10 mi
9:20 PM55 °FClear.3 mph77%30.12 "Hg10 mi
8:50 PM57 °FPassing clouds.3 mph72%30.12 "HgN/A
8:20 PM59 °FSunny.3 mph68%30.12 "Hg10 mi
7:50 PM61 °FSunny.3 mph68%30.12 "Hg10 mi
7:20 PM61 °FSunny.3 mph68%30.12 "Hg10 mi
6:50 PM64 °FSunny.3 mph60%30.12 "Hg10 mi
6:20 PM64 °FSunny.6 mph60%30.12 "Hg10 mi
5:50 PM66 °FPassing clouds.7 mph56%30.12 "HgN/A
5:20 PM66 °FSunny.8 mph52%30.12 "Hg10 mi
4:50 PM66 °FSunny.6 mph52%30.12 "Hg10 mi
4:20 PM68 °FPassing clouds.7 mph49%30.15 "HgN/A
3:50 PM68 °FSunny.6 mph53%30.15 "Hg10 mi
3:20 PM66 °FSunny.5 mph56%30.15 "Hg10 mi
Weather by CustomWeather, © 2014

See weather overviewHow to use our weather pages